DateTimeUTC,F1_A11,F1_S11,BsB_S11,BsG_S11,BsR_S11,BbsB_S11,BbsG_S11,BbsR_S11,BaB_A11,BaG_A11,BaR_A11,Tu_S11,T_S11,Uu_S11,U_S11,P_S11,T1_A11
2021-05-31T13:00:00Z,00000200,20000000,,,,,,,0000.02,-000.40,-000.11,19.4,25.7,02.2,01.5,0657.6,31.1
2021-05-31T13:01:00Z,00000200,20000000,,,,,,,-000.20,0000.64,0000.20,19.4,25.7,02.2,01.5,0657.6,31.1
2021-05-31T13:02:00Z,00000200,20000000,,,,,,,0000.03,-000.21,-000.08,19.4,25.8,02.3,01.6,0657.6,31.1
2021-05-31T13:03:00Z,00000200,60000000,,,,,,,0000.18,-000.22,0000.04,19.4,25.8,02.2,01.5,0657.6,31.1
2021-05-31T13:04:00Z,00000200,40000000,0001.26,0000.35,0000.32,0000.28,0000.01,0000.27,0000.42,0000.40,0000.23,19.6,25.7,02.6,01.8,0658.5,31.1
2021-05-31T13:05:00Z,00000200,00000000,0000.98,0000.52,0000.40,-000.15,-000.01,0000.16,-000.12,0000.01,0000.11,19.7,25.7,02.6,01.8,0658.5,31.1
2021-05-31T13:06:00Z,00000200,00000000,0000.66,0000.34,0000.16,-000.08,0000.05,-000.08,0000.24,0000.76,0000.24,19.7,25.7,02.7,01.9,0658.5,31.1
2021-05-31T13:07:00Z,00000200,00000000,0001.24,0000.49,0000.24,0000.26,0000.24,0000.21,0000.26,-000.25,0000.16,19.7,25.7,02.7,01.9,0658.5,31.2
2021-05-31T13:08:00Z,00000200,00000000,0000.94,0000.55,0000.10,0000.36,-000.09,0000.02,0000.09,0000.15,0000.06,19.7,25.7,02.7,01.9,0658.5,31.2
2021-05-31T13:09:00Z,00000200,00000000,0000.91,0000.59,0000.35,-000.17,0000.02,0000.26,0000.48,0000.13,0000.14,19.7,25.7,02.6,01.8,0658.5,31.1
2021-05-31T13:10:00Z,00000200,00000000,0000.90,0000.33,0000.35,0000.25,0000.07,0000.13,-000.43,-000.28,0000.04,19.8,25.8,02.7,01.9,0658.5,31.1
2021-05-31T13:11:00Z,00000200,00000000,0000.76,0000.45,0000.31,0000.05,0000.09,0000.31,0000.23,0000.22,0000.06,19.8,25.8,02.7,01.9,0658.5,31.2
2021-05-31T13:12:00Z,00000200,00000000,0000.79,-000.01,-000.02,0000.06,0000.13,-000.05,0000.44,0000.81,-000.05,19.8,25.8,02.6,01.8,0658.5,31.2
2021-05-31T13:13:00Z,00000200,00000000,0001.03,0000.42,0000.37,0000.07,0000.19,-000.02,-000.08,-000.40,0000.33,19.8,25.8,02.7,01.9,0658.5,31.2
2021-05-31T13:14:00Z,00000200,00000000,0000.91,0000.70,0000.20,0000.62,-000.20,0000.15,0000.46,0000.51,0000.01,19.8,25.8,02.7,01.9,0658.5,31.2
2021-05-31T13:15:00Z,00000200,00000000,0000.67,0000.64,0000.00,0000.18,-000.03,0000.16,-000.18,-000.30,-000.13,19.9,25.8,02.7,01.9,0658.5,31.1
2021-05-31T13:16:00Z,00000200,00000000,0001.03,0000.55,0000.15,-000.02,0000.07,0000.03,0000.44,0000.38,0000.29,19.9,25.8,02.8,02.0,0658.5,31.2
2021-05-31T13:17:00Z,00000200,00000000,0000.86,0000.72,0000.46,0000.58,0000.17,0000.26,-000.18,-000.15,-000.09,19.9,25.8,02.8,01.9,0658.5,31.1
2021-05-31T13:18:00Z,00000200,00000000,0001.19,0000.27,0000.28,0000.48,0000.03,0000.23,0000.22,0000.14,0000.23,19.8,25.8,02.7,01.9,0658.5,31.1
2021-05-31T13:19:00Z,00000200,00000000,0000.74,0000.46,0000.19,-000.13,-000.05,0000.10,-000.22,-000.03,0000.31,19.8,25.8,02.7,01.9,0658.4,31.1
2021-05-31T13:20:00Z,00000200,00000000,0001.06,0000.64,0000.57,0000.59,-000.05,0000.11,0000.31,0000.24,-000.21,19.8,25.8,02.7,01.9,0658.5,31.1
2021-05-31T13:21:00Z,00000200,00000000,0000.65,0000.62,0000.29,0000.90,-000.04,0000.37,0000.32,0000.39,0000.27,19.8,25.8,02.8,02.0,0658.5,31.1
2021-05-31T13:22:00Z,00000200,00000000,0000.66,0000.67,0000.36,0000.48,-000.01,0000.23,-000.31,-000.14,-000.05,19.9,25.8,02.8,02.0,0658.4,31.1
2021-05-31T13:23:00Z,00000200,00000000,0000.76,0000.42,0000.07,0000.54,-000.04,-000.25,0000.41,-000.22,-000.31,19.8,25.8,02.7,01.9,0658.5,31.1
2021-05-31T13:24:00Z,00000200,00000000,0001.08,0000.45,0000.06,0000.01,0000.26,0000.12,-000.19,0000.25,0000.45,19.8,25.8,02.8,02.0,0658.4,31.1
2021-05-31T13:25:00Z,00000200,00000000,0000.94,0000.32,0000.12,0000.22,0000.37,-000.07,0000.42,0000.39,0000.09,19.8,25.8,02.7,01.9,0658.5,31.1
2021-05-31T13:26:00Z,00000200,00000000,0001.52,0000.46,0000.28,-000.14,0000.07,0000.42,-000.12,0000.22,-000.11,19.8,25.8,02.7,01.9,0658.4,31.1
2021-05-31T13:27:00Z,00000200,00000000,0000.89,0000.45,0000.15,0000.70,0000.02,0000.04,0000.04,0000.16,0000.21,19.8,25.8,02.7,01.8,0658.5,31.1
2021-05-31T13:28:00Z,00000200,00000000,0000.85,0000.21,-000.09,0000.30,0000.10,-000.01,0000.10,-000.29,0000.11,19.8,25.8,02.7,01.9,0658.5,31.1
2021-05-31T13:29:00Z,00000200,00000000,0001.45,0000.50,0000.59,0000.08,-000.16,0000.34,0000.15,0000.14,0000.10,19.8,25.8,02.7,01.9,0658.5,31.1
2021-05-31T13:30:00Z,00000200,00000000,0000.83,0000.34,0000.36,0000.39,0000.20,0000.49,0000.48,0000.63,0000.28,19.9,25.8,02.7,01.9,0658.5,31.1
2021-05-31T13:31:00Z,00000200,00000000,0001.06,0000.51,0000.26,-000.29,0000.10,0000.00,-000.14,-000.18,-000.21,19.8,25.8,02.7,01.9,0658.5,31.1
2021-05-31T13:32:00Z,00000200,00000000,0001.16,0000.59,0000.17,0000.11,0000.21,-000.22,-000.12,-000.04,0000.55,19.8,25.8,02.7,01.9,0658.4,31.1
2021-05-31T13:33:00Z,00000200,00000000,0000.45,0000.51,0000.37,0000.39,0000.01,0000.14,0000.50,0000.29,-000.13,19.8,25.8,02.7,01.9,0658.5,31.1
2021-05-31T13:34:00Z,00000200,00000000,0000.73,0000.49,0000.10,0000.09,0000.16,0000.07,0000.11,0000.10,0000.13,19.8,25.8,02.8,01.9,0658.5,31.1
2021-05-31T13:35:00Z,00000200,00000000,0000.86,0000.24,0000.48,-000.12,0000.35,0000.04,-000.09,-000.33,-000.12,19.8,25.8,02.8,01.9,0658.5,31.1
2021-05-31T13:36:00Z,00000200,00000000,0000.85,0000.62,0000.42,0000.01,0000.15,-000.08,0000.17,0000.37,0000.41,19.8,25.8,02.8,01.9,0658.5,31.1
2021-05-31T13:37:00Z,00000200,00000000,0000.74,0000.42,0000.26,0000.31,0000.25,0000.25,0000.45,0000.34,0000.13,19.8,25.8,02.9,02.0,0658.5,31.1
2021-05-31T13:38:00Z,00000200,00000000,0001.21,0000.30,0000.08,0000.21,0000.09,0000.09,0000.07,0000.09,-000.06,19.8,25.8,02.8,02.0,0658.4,31.1
2021-05-31T13:39:00Z,00000200,00000000,0000.84,0000.69,0000.04,0000.51,-000.04,-000.05,0000.04,-000.05,0000.11,19.9,25.8,02.9,02.0,0658.4,31.1
2021-05-31T13:40:00Z,00000200,00000000,0000.79,0000.54,0000.31,0000.08,0000.09,0000.21,0000.19,0000.57,0000.14,19.9,25.8,02.9,02.0,0658.4,31.1
2021-05-31T13:41:00Z,00000200,00000000,0001.15,0000.37,0000.31,0000.29,0000.12,0000.15,-000.13,-000.45,-000.13,19.8,25.8,02.9,02.0,0658.4,31.1
2021-05-31T13:42:00Z,00000200,00000000,0001.11,0000.51,0000.31,0000.46,0000.07,0000.32,0000.43,0000.72,0000.29,19.9,25.9,02.9,02.0,0658.5,31.1
2021-05-31T13:43:00Z,00000200,00000000,0001.05,0000.42,0000.26,0000.12,0000.23,-000.03,0000.56,-000.04,0000.29,19.8,25.8,03.0,02.1,0658.5,31.2
2021-05-31T13:44:00Z,00000200,00000000,0000.90,0000.59,0000.43,0000.23,-000.06,0000.02,0000.01,0000.25,-000.26,19.8,25.9,03.1,02.2,0658.4,31.1
2021-05-31T13:45:00Z,00000200,00000000,0000.89,0000.18,0000.32,0000.05,0000.19,0000.12,-000.08,-000.33,0000.41,19.8,25.9,03.0,02.1,0658.5,31.1
2021-05-31T13:46:00Z,00000200,00000000,0000.50,0000.47,0000.01,0000.15,-000.08,0000.09,0000.15,0000.42,0000.15,19.8,25.8,02.9,02.0,0658.5,31.1
2021-05-31T13:47:00Z,00000200,00000000,0001.30,0000.52,0000.39,0000.21,0000.26,0000.26,0000.16,0000.39,0000.08,19.8,25.9,03.0,02.1,0658.5,31.1
2021-05-31T13:48:00Z,00000200,00000000,0000.93,0000.47,0000.41,0000.01,0000.13,0000.05,0000.19,-000.17,-000.06,19.8,25.9,03.1,02.1,0658.4,31.1
2021-05-31T13:49:00Z,00000200,00000000,0001.01,0000.55,0000.33,0000.15,0000.05,0000.08,0000.33,0000.54,0000.34,19.8,25.9,03.1,02.2,0658.4,31.1
2021-05-31T13:50:00Z,00000200,00000000,0000.59,0000.34,0000.22,-000.07,0000.15,0000.11,0000.02,0000.07,0000.01,19.8,25.9,03.1,02.2,0658.4,31.1
2021-05-31T13:51:00Z,00000200,00000000,0000.86,0000.45,0000.17,0000.12,-000.05,-000.04,-000.03,-000.19,0000.40,19.8,25.9,03.2,02.2,0658.4,31.1
2021-05-31T13:52:00Z,00000200,00000000,0001.03,0000.46,-000.07,0000.38,0000.04,-000.03,0000.37,0000.46,-000.48,19.8,25.9,03.2,02.2,0658.4,31.1
2021-05-31T13:53:00Z,00000200,00000000,0000.90,0000.53,0000.02,-000.02,-000.24,0000.14,0000.26,0000.26,0000.73,19.8,25.9,03.3,02.3,0658.4,31.1
2021-05-31T13:54:00Z,00000200,00000000,0000.77,0000.49,0000.07,0000.26,0000.13,0000.09,-000.13,-000.14,-000.30,19.8,25.9,03.4,02.4,0658.2,31.1
2021-05-31T13:55:00Z,00000200,00000000,0000.84,0000.58,0000.25,-000.01,0000.03,0000.25,0000.22,-000.02,0000.31,19.8,25.9,03.1,02.2,0658.2,31.1
2021-05-31T13:56:00Z,00000200,00000000,0001.14,0000.60,0000.20,0000.32,0000.05,0000.20,-000.02,0000.09,0000.13,19.8,25.9,03.2,02.2,0658.3,31.1
2021-05-31T13:57:00Z,00000200,40000000,,,,,,,-000.12,0000.09,-000.31,19.9,25.9,03.2,02.2,0658.4,31.1
2021-05-31T13:58:00Z,00000200,60000000,,,,,,,0000.11,0000.26,0000.38,19.6,26.0,03.1,02.1,0657.4,31.1
2021-05-31T13:59:00Z,00000200,20000000,,,,,,,0000.10,-000.14,-000.05,19.6,26.1,03.2,02.1,0657.3,31.1
